�������l�o���
Date,Time,MP-1(��Sv/h),MP-2(��Sv/h),MP-3(��Sv/h),MP-4(��Sv/h),MP-5(��Sv/h),MP-6(��Sv/h),MP-7(��Sv/h),MP-8(��Sv/h),����,����(m/s),���J
2020/04/20,00:00,0.671,0.953,0.634,1.167,0.814,0.386,0.676,0.646,�k�k��,8.4,��
2020/04/20,00:10,0.670,0.956,0.634,1.166,0.815,0.388,0.677,0.648,�k,7.1,��
2020/04/20,00:20,0.669,0.953,0.633,1.166,0.815,0.387,0.677,0.646,�k,7.1,��
2020/04/20,00:30,0.668,0.954,0.635,1.167,0.814,0.388,0.677,0.647,�k,7.8,��
2020/04/20,00:40,0.670,0.952,0.634,1.170,0.814,0.387,0.677,0.644,�k,6.9,��
2020/04/20,00:50,0.669,0.955,0.635,1.170,0.816,0.386,0.679,0.646,�k�k��,7.8,��
2020/04/20,01:00,0.670,0.955,0.635,1.167,0.817,0.386,0.678,0.647,�k,7.7,�L
2020/04/20,01:10,0.669,0.955,0.635,1.169,0.815,0.386,0.678,0.648,�k,6.9,��
2020/04/20,01:20,0.670,0.956,0.634,1.166,0.816,0.387,0.678,0.646,�k,6.4,��
2020/04/20,01:30,0.670,0.953,0.634,1.167,0.816,0.387,0.678,0.645,�k,6.2,��
2020/04/20,01:40,0.670,0.955,0.634,1.167,0.815,0.386,0.677,0.648,�k�k��,7.6,��
2020/04/20,01:50,0.672,0.955,0.635,1.169,0.818,0.388,0.679,0.647,�k�k��,7.4,��
2020/04/20,02:00,0.670,0.956,0.633,1.168,0.816,0.387,0.677,0.645,�k,6.9,��
2020/04/20,02:10,0.672,0.954,0.634,1.169,0.816,0.386,0.678,0.646,�k�k��,6.1,��
2020/04/20,02:20,0.669,0.954,0.634,1.166,0.817,0.388,0.677,0.646,�k,5.7,��
2020/04/20,02:30,0.670,0.956,0.634,1.166,0.817,0.388,0.679,0.648,�k,6.0,��
2020/04/20,02:40,0.670,0.953,0.635,1.169,0.816,0.387,0.676,0.647,�k,5.3,��
2020/04/20,02:50,0.669,0.955,0.634,1.167,0.816,0.388,0.678,0.646,�k,4.5,��
2020/04/20,03:00,0.669,0.955,0.637,1.166,0.818,0.386,0.678,0.646,�k�k��,4.1,�L
2020/04/20,03:10,0.672,0.955,0.633,1.165,0.815,0.387,0.678,0.646,�k,5.3,�L
2020/04/20,03:20,0.671,0.954,0.635,1.168,0.817,0.386,0.676,0.647,�k,6.2,��
2020/04/20,03:30,0.670,0.954,0.635,1.167,0.817,0.387,0.679,0.645,�k�k��,6.6,��
2020/04/20,03:40,0.670,0.954,0.636,1.168,0.816,0.389,0.677,0.647,�k�k��,5.0,��
2020/04/20,03:50,0.670,0.955,0.633,1.168,0.815,0.387,0.679,0.645,�k�k��,4.4,��
2020/04/20,04:00,0.671,0.953,0.634,1.168,0.817,0.386,0.678,0.646,�k�k��,3.7,��
2020/04/20,04:10,0.670,0.957,0.634,1.168,0.817,0.388,0.678,0.647,�k,3.0,�L
2020/04/20,04:20,0.670,0.954,0.633,1.167,0.818,0.387,0.680,0.646,�k�k��,3.3,��
2020/04/20,04:30,0.671,0.956,0.634,1.169,0.819,0.387,0.679,0.647,�k,4.0,��
2020/04/20,04:40,0.671,0.957,0.634,1.169,0.817,0.389,0.679,0.645,�k,3.9,��
2020/04/20,04:50,0.672,0.957,0.634,1.167,0.817,0.387,0.678,0.645,�k,4.0,��
2020/04/20,05:00,0.670,0.957,0.634,1.167,0.817,0.388,0.677,0.647,�k,3.1,��
2020/04/20,05:10,0.670,0.955,0.637,1.168,0.817,0.387,0.678,0.646,�k�k��,3.1,��
2020/04/20,05:20,0.673,0.957,0.635,1.168,0.818,0.387,0.679,0.646,�k�k��,3.5,��
2020/04/20,05:30,0.671,0.956,0.634,1.165,0.818,0.386,0.679,0.646,�k,3.6,��
2020/04/20,05:40,0.672,0.955,0.636,1.168,0.818,0.387,0.678,0.647,�k,3.6,��
2020/04/20,05:50,0.672,0.955,0.633,1.167,0.816,0.388,0.679,0.646,�k�k��,3.3,��
2020/04/20,06:00,0.671,0.955,0.634,1.166,0.819,0.387,0.679,0.647,�k�k��,3.3,��
2020/04/20,06:10,0.669,0.955,0.634,1.167,0.819,0.387,0.678,0.647,�k��,3.8,�L
2020/04/20,06:20,0.671,0.957,0.635,1.168,0.819,0.387,0.679,0.647,�k�k��,3.0,�L
2020/04/20,06:30,0.669,0.956,0.637,1.169,0.819,0.389,0.678,0.645,�k�k��,4.1,�L
2020/04/20,06:40,0.672,0.955,0.637,1.168,0.819,0.389,0.678,0.645,�k�k��,3.8,�L
2020/04/20,06:50,0.669,0.952,0.636,1.168,0.817,0.389,0.677,0.646,�k�k��,4.1,�L
2020/04/20,07:00,0.670,0.951,0.634,1.166,0.815,0.389,0.676,0.646,�k�k��,4.0,�L
2020/04/20,07:10,0.668,0.945,0.631,1.164,0.812,0.389,0.676,0.645,�k��,3.4,�L
2020/04/20,07:20,0.665,0.943,0.629,1.163,0.811,0.388,0.675,0.644,�k��,3.8,�L
2020/04/20,07:30,0.663,0.938,0.630,1.156,0.805,0.388,0.673,0.642,�k��,3.4,�L
2020/04/20,07:40,0.662,0.936,0.629,1.153,0.806,0.387,0.673,0.643,�k��,2.8,�L
2020/04/20,07:50,0.660,0.934,0.628,1.150,0.803,0.386,0.671,0.641,�k��,2.8,�L
2020/04/20,08:00,0.657,0.934,0.627,1.148,0.803,0.386,0.672,0.641,�k��,4.7,�L
2020/04/20,08:10,0.661,0.930,0.626,1.145,0.802,0.386,0.670,0.641,�k�k��,3.0,�L
2020/04/20,08:20,0.658,0.933,0.628,1.144,0.800,0.387,0.670,0.641,�k�k��,3.6,�L
2020/04/20,08:30,0.657,0.930,0.626,1.142,0.800,0.385,0.671,0.641,�k��,1.9,�L
2020/04/20,08:40,0.658,0.927,0.626,1.139,0.800,0.385,0.671,0.639,�쐼,1.2,�L
2020/04/20,08:50,0.657,0.924,0.622,1.138,0.798,0.382,0.669,0.639,���k��,1.5,�L
2020/04/20,09:00,0.656,0.923,0.623,1.137,0.795,0.384,0.667,0.638,�쐼,1.1,�L
2020/04/20,09:10,0.655,0.922,0.621,1.135,0.792,0.384,0.666,0.637,-,CALM,�L
2020/04/20,09:20,0.655,0.922,0.621,1.133,0.793,0.382,0.665,0.637,��,0.9,�L
2020/04/20,09:30,0.658,0.923,0.622,1.130,0.794,0.384,0.666,0.638,���쐼,1.7,�L
2020/04/20,09:40,0.657,0.920,0.624,1.129,0.791,0.383,0.666,0.637,�쐼,2.8,�L
2020/04/20,09:50,0.654,0.921,0.622,1.129,0.793,0.384,0.664,0.637,��,0.9,�L
2020/04/20,10:00,0.655,0.919,0.623,1.128,0.794,0.383,0.665,0.636,-,CALM,�L
2020/04/20,10:10,0.656,0.919,0.622,1.130,0.795,0.384,0.665,0.636,��,0.8,�L
2020/04/20,10:20,0.657,0.920,0.623,1.128,0.794,0.384,0.665,0.639,�k��,2.6,�L
2020/04/20,10:30,0.656,0.921,0.623,1.131,0.798,0.385,0.666,0.640,���쐼,2.2,�L
2020/04/20,10:40,0.659,0.924,0.623,1.131,0.796,0.386,0.664,0.637,���쐼,1.5,�L
2020/04/20,10:50,0.658,0.924,0.621,1.132,0.795,0.384,0.666,0.638,��쐼,1.4,�L
2020/04/20,11:00,0.662,0.926,0.623,1.133,0.796,0.386,0.667,0.638,�쐼,1.7,�L
2020/04/20,11:10,0.660,0.924,0.624,1.135,0.794,0.384,0.667,0.638,-,CALM,�L
2020/04/20,11:20,0.660,0.929,0.623,1.135,0.798,0.385,0.669,0.639,���k��,1.2,��
2020/04/20,11:30,0.661,0.928,0.623,1.136,0.799,0.384,0.667,0.638,�k��,0.8,�L
2020/04/20,11:40,0.660,0.929,0.622,1.137,0.797,0.385,0.668,0.638,-,CALM,�L
2020/04/20,11:50,0.659,0.923,0.621,1.134,0.792,0.385,0.666,0.638,��쓌,6.5,�L
2020/04/20,12:00,0.653,0.918,0.617,1.129,0.789,0.383,0.665,0.637,-,CALM,�L
2020/04/20,12:10,0.655,0.917,0.620,1.126,0.788,0.384,0.664,0.636,���쐼,1.5,�L
2020/04/20,12:20,0.655,0.921,0.620,1.127,0.791,0.384,0.664,0.635,���쐼,1.4,�L
2020/04/20,12:30,0.656,0.922,0.621,1.126,0.792,0.386,0.665,0.634,�쐼,1.4,�L
2020/04/20,12:40,0.657,0.923,0.621,1.127,0.792,0.385,0.666,0.636,��쓌,1.9,�L
2020/04/20,12:50,0.658,0.927,0.622,1.130,0.794,0.386,0.666,0.635,��쐼,2.3,��
2020/04/20,13:00,0.659,0.925,0.624,1.129,0.796,0.386,0.666,0.636,��쓌,1.5,��
2020/04/20,13:10,0.661,0.925,0.621,1.132,0.796,0.386,0.667,0.636,��쓌,2.2,��
2020/04/20,13:20,0.661,0.925,0.622,1.133,0.796,0.385,0.667,0.637,��쓌,2.2,�L
2020/04/20,13:30,0.660,0.927,0.622,1.132,0.796,0.385,0.666,0.637,�쓌,1.7,�L
2020/04/20,13:40,0.660,0.925,0.622,1.133,0.795,0.385,0.668,0.636,�쓌,2.2,�L
2020/04/20,13:50,0.660,0.926,0.625,1.134,0.793,0.385,0.667,0.637,���쓌,1.9,�L
2020/04/20,14:00,0.660,0.926,0.622,1.135,0.791,0.386,0.668,0.637,�쓌,2.6,�L
2020/04/20,14:10,0.659,0.930,0.622,1.132,0.792,0.386,0.668,0.636,�쓌,2.8,�L
2020/04/20,14:20,0.658,0.930,0.623,1.138,0.795,0.386,0.667,0.637,�쓌,2.8,��
2020/04/20,14:30,0.659,0.928,0.622,1.138,0.796,0.386,0.668,0.639,��쓌,3.5,��
2020/04/20,14:40,0.661,0.929,0.623,1.136,0.796,0.385,0.670,0.639,�쓌,2.8,��
2020/04/20,14:50,0.662,0.932,0.623,1.136,0.797,0.386,0.669,0.639,��쓌,2.6,��
2020/04/20,15:00,0.662,0.933,0.623,1.138,0.796,0.385,0.669,0.640,��쓌,2.5,�L
2020/04/20,15:10,0.660,0.932,0.623,1.137,0.797,0.387,0.670,0.640,�쓌,2.3,��
2020/04/20,15:20,0.661,0.931,0.623,1.139,0.798,0.386,0.669,0.640,�쓌,3.3,��
2020/04/20,15:30,0.664,0.934,0.623,1.136,0.798,0.386,0.668,0.640,�쓌,2.6,�L
2020/04/20,15:40,0.663,0.936,0.624,1.140,0.798,0.387,0.669,0.639,���쓌,2.8,��
2020/04/20,15:50,0.664,0.937,0.624,1.140,0.797,0.387,0.670,0.639,�쓌,2.8,��
2020/04/20,16:00,0.664,0.936,0.623,1.140,0.797,0.387,0.671,0.640,�쓌,2.3,��
2020/04/20,16:10,0.663,0.940,0.625,1.141,0.799,0.387,0.671,0.640,�쓌,3.0,��
2020/04/20,16:20,0.665,0.939,0.625,1.142,0.801,0.387,0.669,0.640,�쓌,3.3,��
2020/04/20,16:30,0.663,0.940,0.624,1.140,0.799,0.386,0.670,0.641,�쓌,2.3,�L
2020/04/20,16:40,0.665,0.942,0.624,1.142,0.799,0.386,0.669,0.642,�쓌,2.5,�L
2020/04/20,16:50,0.664,0.941,0.625,1.144,0.801,0.386,0.670,0.641,��쓌,1.9,��
2020/04/20,17:00,0.664,0.941,0.625,1.142,0.800,0.388,0.671,0.641,��,2.2,��
2020/04/20,17:10,0.664,0.940,0.627,1.143,0.800,0.386,0.670,0.642,��,2.3,��
2020/04/20,17:20,0.664,0.943,0.625,1.145,0.799,0.388,0.672,0.641,��쓌,2.2,��
2020/04/20,17:30,0.663,0.942,0.625,1.141,0.803,0.386,0.673,0.640,��쓌,2.3,��
2020/04/20,17:40,0.666,0.940,0.625,1.144,0.802,0.388,0.672,0.641,��,2.3,��
2020/04/20,17:50,0.665,0.942,0.625,1.144,0.801,0.388,0.672,0.640,�쓌,0.6,��
2020/04/20,18:00,0.666,0.943,0.625,1.146,0.803,0.385,0.673,0.642,���쓌,0.9,��
2020/04/20,18:10,0.664,0.942,0.626,1.145,0.801,0.387,0.671,0.640,��쓌,0.8,��
2020/04/20,18:20,0.663,0.941,0.625,1.146,0.800,0.387,0.674,0.641,��쓌,1.2,��
2020/04/20,18:30,0.665,0.943,0.628,1.145,0.803,0.387,0.673,0.641,-,CALM,��
2020/04/20,18:40,0.665,0.943,0.626,1.145,0.801,0.388,0.672,0.641,�쓌,0.9,��
2020/04/20,18:50,0.665,0.943,0.627,1.146,0.802,0.387,0.674,0.643,-,CALM,��
2020/04/20,19:00,0.665,0.941,0.625,1.146,0.803,0.387,0.672,0.641,���쐼,0.8,��
2020/04/20,19:10,0.665,0.942,0.626,1.145,0.801,0.387,0.674,0.641,��,1.4,��
2020/04/20,19:20,0.667,0.942,0.625,1.147,0.801,0.388,0.673,0.641,���쐼,2.0,��
2020/04/20,19:30,0.665,0.943,0.626,1.149,0.801,0.387,0.673,0.642,��,2.0,��
2020/04/20,19:40,0.666,0.942,0.626,1.146,0.803,0.388,0.673,0.641,��,2.0,��
2020/04/20,19:50,0.664,0.943,0.628,1.147,0.803,0.389,0.675,0.643,��,2.2,��
2020/04/20,20:00,0.667,0.945,0.626,1.148,0.804,0.388,0.673,0.643,��,1.7,�L
2020/04/20,20:10,0.668,0.945,0.626,1.148,0.804,0.388,0.678,0.642,��,2.0,�L
2020/04/20,20:20,0.665,0.945,0.627,1.146,0.804,0.388,0.673,0.643,���k��,2.3,�L
2020/04/20,20:30,0.668,0.943,0.626,1.148,0.805,0.388,0.673,0.641,���k��,2.6,�L
2020/04/20,20:40,0.667,0.944,0.625,1.150,0.804,0.388,0.673,0.641,���k��,2.3,��
2020/04/20,20:50,0.668,0.944,0.627,1.149,0.803,0.387,0.676,0.641,�k�k��,2.3,��
2020/04/20,21:00,0.667,0.944,0.627,1.151,0.805,0.388,0.673,0.644,�k�k��,2.3,��
2020/04/20,21:10,0.667,0.945,0.628,1.146,0.805,0.389,0.674,0.643,�쐼,0.6,��
2020/04/20,21:20,0.668,0.945,0.627,1.150,0.805,0.390,0.673,0.644,�k��,1.7,��
2020/04/20,21:30,0.668,0.943,0.629,1.148,0.806,0.389,0.675,0.643,�k,1.7,��
2020/04/20,21:40,0.666,0.943,0.628,1.149,0.806,0.389,0.673,0.642,�k�k��,1.5,��
2020/04/20,21:50,0.666,0.944,0.628,1.147,0.806,0.388,0.676,0.643,�k�k��,2.3,��
2020/04/20,22:00,0.667,0.945,0.628,1.149,0.808,0.389,0.676,0.643,�k��,2.8,��
2020/04/20,22:10,0.667,0.945,0.628,1.146,0.804,0.389,0.676,0.642,�k��,3.9,��
2020/04/20,22:20,0.668,0.945,0.628,1.149,0.806,0.389,0.675,0.642,���k��,3.8,��
2020/04/20,22:30,0.669,0.943,0.628,1.148,0.806,0.388,0.675,0.643,���k��,3.3,��
2020/04/20,22:40,0.668,0.944,0.628,1.150,0.806,0.389,0.674,0.644,�k�k��,2.6,��
2020/04/20,22:50,0.667,0.944,0.629,1.149,0.806,0.389,0.674,0.644,�k��,3.7,��
2020/04/20,23:00,0.666,0.945,0.629,1.150,0.806,0.389,0.676,0.644,�k��,6.8,��
2020/04/20,23:10,0.670,0.945,0.630,1.152,0.805,0.389,0.673,0.644,�k��,6.9,��
2020/04/20,23:20,0.670,0.945,0.627,1.152,0.806,0.389,0.676,0.643,�k��,5.9,��
2020/04/20,23:30,0.669,0.944,0.628,1.153,0.805,0.389,0.676,0.643,�k��,6.1,��
2020/04/20,23:40,0.668,0.943,0.629,1.153,0.807,0.389,0.675,0.643,�k��,6.2,��
2020/04/20,23:50,0.667,0.945,0.628,1.152,0.806,0.390,0.677,0.642,���k��,8.1,��
